Miscellaneous Local Product
Issued by NWS Hastings, NE

Home | Current Version | Previous Version | Graphics & Text | Print | Product List | Glossary On
Versions: 1 2 3 4 5 6 7 8 9 10 11 12 13 14 15 16 17 18 19 20 21 22 23 24 25 26 27 28 29 30 31 32 33 34 35 36 37 38 39 40 41 42 43 44 45 46 47 48 49 50
533
AXUS43 KGID 122302
MISGRI

GID CWA HOURLY WEATHER ROUNDUP
NATIONAL WEATHER SERVICE HASTINGS NE
500 PM CST TUE DEC 12 2017

NOTE: "FAIR" INDICATES FEW OR NO CLOUDS BELOW 12,000 FEET WITH NO
SIGNIFICANT WEATHER AND/OR OBSTRUCTIONS TO VISIBILITY.

...SOUTH CENTRAL NEBRASKA...

CITY           SKY/WX    TMP DP  RH WIND       PRES   REMARKS
GRAND ISLAND   CLEAR     47  17  30 SW9       30.01F
KEARNEY        CLEAR     48  21  34 SW9       30.03F
HASTINGS       CLEAR     48  18  30 SW6       30.03F
ORD            CLEAR     48  17  29 SW8       29.97F
YORK           CLEAR     46  23  39 SW6       30.03F
AURORA         CLEAR     45  19  35 SW7       30.01F
LEXINGTON      CLEAR     51  20  29 SW7       30.02F
HOLDREGE       CLEAR     46  24  41 SW6       30.04F
HEBRON         CLEAR     47  25  42 SW6       30.06F

...NEBRASKA PANHANDLE...

CITY           SKY/WX    TMP DP  RH WIND       PRES   REMARKS
CHADRON        CLEAR     58  19  22 SW5       29.98F
ALLIANCE       CLEAR     55  19  24 W12       30.02F
SCOTTSBLUFF    CLEAR     61  15  16 W15       30.06F
SIDNEY         CLEAR     57  16  20 NW9       30.08F

...WESTERN AND NORTH CENTRAL NEBRASKA...

CITY           SKY/WX    TMP DP  RH WIND       PRES   REMARKS
VALENTINE      CLEAR     54  19  25 W6        29.94F
AINSWORTH      CLEAR     51  22  32 W8        29.94F
ONEILL         CLEAR     46  23  39 S5        29.94F
BROKEN BOW     CLEAR     51  22  31 SW9       29.98F
IMPERIAL       CLEAR     60  19  20 W5        30.05F
NORTH PLATTE   CLEAR     54  21  27 W6        30.01F
MCCOOK         CLEAR     57  21  24 SW5       30.04F

...EASTERN NEBRASKA...

CITY           SKY/WX    TMP DP  RH WIND       PRES   REMARKS
NORFOLK        CLEAR     42  24  49 SW9       29.94F
SO SIOUX CITY  CLEAR     39  26  59 SW9       29.96F WCI  33
TEKAMAH        CLEAR     38  25  59 S10       30.00F WCI  31
ALBION         CLEAR     47  21  36 SW3       29.98F
OMAHA EPPLEY   PTCLDY    37  25  61 SE8       30.04F WCI  31
OFFUTT AFB     CLEAR     38  26  60 S7        30.04F WCI  33
MILLARD        CLEAR     42  29  60 SE5       30.03F
LINCOLN        CLEAR     45  25  45 SW3       30.05F
NEBRASKA CITY  CLEAR     37  28  69 S8        30.06F WCI  31
BEATRICE       CLEAR     44  27  49 SW8       30.06F
FALLS CITY     CLEAR     40  26  57 S6        30.09F

...NORTHERN KANSAS...

CITY           SKY/WX    TMP DP  RH WIND       PRES   REMARKS
GOODLAND       CLEAR     59  17  19 NW3       30.10F
HILL CITY      CLEAR     59  17  19 W3        30.07F
NORTON         CLEAR     50  10  20 SW7       30.04F
PHILLIPSBURG   CLEAR     54  18  24 SW6       30.06F
SMITH CENTER   CLEAR     46  19  34 SW5       30.07F
HAYS           CLEAR     56  16  20 S6        30.08F
RUSSELL        CLEAR     51  22  31 SW8       30.08F
CONCORDIA      CLEAR     45  26  47 S6        30.08F
SALINA         CLEAR     50  26  39 SW7       30.12F
TOPEKA         CLEAR     43  28  55 SW3       30.13F



USA.gov is the U.S. government's official web portal to all federal, state and local government web resources and services.